GFSSE_sfc_30mbdewp_363.txt.gz
Dewpoint
57 60 64 69 69 69 68 69 69 68 71 70 70 69 68 69 70 70 70 71 71 70 69 69 70 70 69 69 70 70 70 69 69 68 68 67 67 66 66 65 63 63 62
58 60 63 67 68 69 69 68 69 68 70 69 67 67 67 68 69 69 69 70 70 70 69 68 69 69 69 69 70 70 69 69 69 68 67 66 65 65 64 63 63 63 63
58 60 61 65 67 69 68 69 68 69 69 68 67 67 67 67 67 68 70 71 70 70 69 68 68 68 69 69 69 69 69 68 68 67 66 65 64 63 63 63 62 61 62
56 57 59 65 65 67 68 67 67 68 68 68 67 66 67 68 68 68 67 68 68 69 69 68 67 68 69 69 69 69 68 68 66 65 64 64 62 62 62 62 62 61 58
53 54 59 64 64 65 66 67 68 67 67 68 67 67 68 68 68 67 66 66 67 68 67 67 67 68 69 69 69 68 67 66 65 64 63 63 63 63 62 62 60 60 58
50 52 54 60 63 64 64 65 66 67 66 67 67 66 66 66 66 65 66 66 66 66 65 68 68 69 69 68 68 67 67 65 64 63 64 64 63 62 61 60 58 57 58
46 50 51 53 57 61 63 63 64 66 67 65 65 66 65 65 65 66 66 66 67 67 66 67 69 68 68 67 67 66 65 65 64 63 63 61 62 61 60 59 58 61 61
44 47 49 48 49 54 58 61 62 64 66 67 65 65 66 66 66 65 66 66 68 65 64 65 67 67 66 66 66 65 65 64 63 62 62 62 62 62 61 58 57 58 60
41 44 44 44 45 48 53 58 59 62 64 66 67 65 66 66 67 66 65 66 66 66 65 64 65 66 66 65 64 65 65 64 62 62 63 63 63 62 60 57 57 57 58
37 39 40 40 42 45 49 52 55 58 62 64 66 66 65 66 67 66 64 65 65 64 65 65 64 64 65 63 63 65 65 63 63 63 63 63 63 61 60 57 60 58 59
35 36 38 39 41 41 44 47 51 55 60 61 63 64 66 65 66 67 65 65 66 66 64 64 66 65 65 62 64 65 63 63 62 63 63 64 62 61 58 55 59 56 55
32 33 36 37 40 40 39 44 48 52 55 60 59 60 62 66 65 67 66 64 66 66 66 65 66 65 65 62 61 64 62 62 62 63 63 63 61 59 58 54 59 55 60
32 32 35 37 40 41 40 42 44 47 51 56 58 59 60 65 66 66 66 66 65 65 66 65 66 65 62 60 58 59 61 62 62 63 63 63 60 58 57 55 58 56 57
30 31 32 36 37 42 41 40 42 44 47 50 55 56 56 59 65 65 65 65 65 66 65 66 65 64 61 59 57 58 61 61 61 62 63 61 60 57 56 54 54 58 55
29 30 31 35 36 39 41 41 40 43 45 48 53 54 55 56 59 65 65 65 65 66 66 66 65 63 60 59 58 59 59 60 60 62 62 60 60 58 55 56 57 58 55
28 29 30 34 35 36 37 40 39 41 43 46 50 51 52 54 55 58 65 64 65 65 66 66 65 63 61 60 58 57 58 58 60 61 61 60 58 58 54 57 57 57 54
27 29 29 31 35 34 36 37 38 39 41 44 46 49 50 51 53 55 63 65 65 66 65 66 65 64 61 61 58 57 57 58 59 60 60 59 58 57 55 57 58 55 56
26 27 28 29 32 34 35 36 37 37 39 42 43 47 47 49 51 53 58 65 66 65 65 65 64 63 62 61 58 56 56 57 58 59 59 58 57 56 56 56 56 59 57
23 25 25 27 29 33 33 34 36 36 37 39 41 44 46 48 50 52 56 61 65 65 65 65 64 63 62 61 58 56 56 56 57 58 58 57 56 56 57 57 57 57 58
21 22 23 24 26 32 33 33 34 35 36 38 39 41 44 46 47 51 52 55 64 64 64 64 63 63 62 61 59 56 55 55 55 56 56 56 56 56 56 57 57 57 57
20 19 21 22 24 30 30 31 31 33 34 36 37 38 41 45 46 48 50 52 55 61 63 63 63 62 61 62 59 57 56 54 54 54 54 53 55 55 56 55 55 55 56
19 19 19 20 23 27 31 31 33 34 33 34 35 37 39 42 45 46 47 50 52 55 63 63 62 61 61 61 58 56 53 54 54 53 53 53 53 54 55 55 53 52 54
17 19 18 19 22 27 31 31 33 34 34 33 33 35 37 39 41 43 44 47 50 52 57 63 62 61 59 61 61 58 54 53 53 54 53 53 52 52 53 54 53 52 52
16 19 19 19 21 26 31 30 31 33 32 34 34 34 36 38 39 41 42 44 47 51 52 57 63 61 61 59 60 60 59 56 54 53 54 53 53 52 52 53 53 52 52
15 18 19 19 21 26 30 30 31 31 34 34 35 33 34 36 37 39 41 43 45 48 50 51 57 61 61 60 59 58 58 58 57 55 53 53 52 53 53 53 53 53 52
14 16 19 20 19 26 30 29 29 30 32 33 34 34 33 35 35 37 39 41 43 46 49 50 53 59 61 60 60 59 57 56 56 55 54 54 53 53 53 53 53 53 53

GFSSE_sfc_30mbdewp_369.txt.gz
Dewpoint
52 54 58 63 67 68 69 70 69 69 69 69 69 68 69 72 72 71 71 71 71 70 69 70 72 71 70 69 70 68 68 69 69 68 68 67 66 64 63 63 63 61 62
52 53 55 61 65 67 68 69 70 68 68 68 68 67 67 70 68 70 69 69 70 70 69 70 71 69 69 70 70 69 69 69 68 67 67 66 64 63 63 62 62 60 60
49 49 51 59 63 64 67 67 68 69 68 67 67 66 65 67 67 68 68 67 69 70 70 69 69 70 69 70 69 69 69 68 67 67 65 63 62 63 64 62 62 59 60
46 46 49 57 60 62 63 66 66 67 69 68 66 65 65 65 65 66 66 66 67 69 70 69 69 69 69 70 69 68 68 67 66 65 63 62 61 62 63 61 61 58 62
43 45 48 55 55 58 61 62 65 66 67 68 67 65 65 65 65 65 65 65 66 69 68 68 67 68 70 69 69 68 67 66 64 62 61 62 61 63 62 59 60 59 61
40 43 46 50 53 54 58 60 62 64 65 66 67 67 64 65 65 65 66 66 66 67 68 68 68 69 69 69 68 67 66 64 63 61 61 62 62 62 60 57 61 63 62
40 41 45 47 49 51 53 55 58 61 63 65 65 66 66 64 65 65 66 65 65 67 67 68 68 68 68 68 67 66 65 64 62 61 61 62 62 61 59 57 62 62 61
35 37 40 44 45 47 48 52 54 57 60 62 63 64 65 66 64 64 64 64 66 67 67 67 68 68 68 67 66 65 64 63 61 60 60 60 62 61 59 56 62 62 61
34 36 36 40 42 44 46 49 50 54 56 59 61 61 63 64 65 64 65 66 66 66 66 65 67 68 68 67 65 65 64 63 60 60 60 60 63 61 59 61 61 60 60
32 34 35 36 39 41 43 46 48 51 52 55 57 58 59 62 63 65 64 67 66 64 67 67 66 67 66 66 65 65 64 63 61 60 60 61 62 60 59 59 60 58 58
25 28 32 34 36 38 38 43 46 47 49 52 54 55 56 58 61 66 64 65 65 64 66 67 65 65 65 65 65 65 63 62 61 60 60 63 61 59 59 57 59 57 55
22 24 28 31 33 35 34 40 43 47 47 49 50 52 54 55 59 61 66 64 64 64 65 65 63 64 65 65 65 64 63 62 61 61 60 63 61 58 61 58 59 56 58
20 22 24 27 32 32 36 37 38 43 45 47 49 50 52 53 55 58 63 65 63 63 62 64 63 63 64 64 63 63 63 63 61 61 62 63 61 58 60 58 57 54 60
18 20 22 26 29 31 33 36 36 38 43 44 47 49 49 50 52 54 58 64 65 63 62 63 64 63 62 63 62 63 63 62 61 61 62 63 61 58 57 57 54 56 59
17 20 23 25 28 29 31 33 36 37 41 43 44 47 48 49 50 51 54 57 65 64 63 63 61 62 62 60 62 63 63 62 62 61 61 62 61 59 55 58 57 59 59
17 18 24 24 28 29 30 33 34 36 38 42 42 45 46 48 48 49 52 55 59 65 63 63 60 57 58 60 59 62 63 62 62 62 60 60 60 60 59 58 55 56 58
16 18 21 22 28 29 29 31 31 34 37 41 42 42 44 47 47 48 51 54 57 64 65 63 63 57 59 59 58 59 61 62 62 61 60 59 58 58 58 58 58 55 56
17 18 19 24 27 29 30 29 31 33 36 38 41 41 43 45 46 47 49 51 54 56 65 64 64 62 60 60 59 58 59 60 61 61 60 58 57 54 57 58 60 57 58
17 19 17 23 25 29 29 29 30 31 34 37 39 40 42 44 44 46 47 49 52 54 62 64 64 63 61 60 59 58 58 58 61 60 59 58 58 55 54 58 59 57 56
17 19 19 21 24 30 28 26 25 28 31 35 38 38 40 42 43 45 46 47 50 52 57 64 63 63 62 60 58 58 58 58 60 60 59 57 57 56 54 55 56 55 56
17 19 19 20 24 28 25 24 23 24 28 32 35 37 39 41 42 43 44 45 47 49 53 56 63 62 61 61 57 56 57 58 59 59 59 57 57 56 56 54 51 52 56
17 19 20 19 22 26 26 27 26 27 29 32 34 35 37 40 40 42 43 44 46 48 51 54 59 62 62 60 57 55 53 54 56 57 58 57 57 55 55 55 54 52 53
16 18 19 21 22 24 31 26 24 23 25 27 31 33 36 38 39 40 42 43 44 47 48 52 54 60 59 60 59 55 52 52 54 55 56 56 57 56 54 55 56 54 53
15 19 20 22 22 21 30 25 25 22 23 28 30 33 34 37 38 40 41 43 44 46 47 50 53 54 60 57 59 59 58 56 53 52 54 55 56 55 55 54 55 54 53
14 16 19 22 23 23 28 28 24 23 24 28 30 32 33 35 37 39 41 43 44 45 46 49 51 54 59 59 58 59 58 57 58 54 52 53 54 54 54 55 54 55 54
14 16 19 21 21 23 28 26 25 25 26 29 31 31 32 35 36 38 41 43 45 45 45 46 49 54 55 61 60 59 58 57 56 56 54 53 53 53 54 54 55 54 54

GFSSE_sfc_30mbdewp_375.txt.gz
Dewpoint
44 46 47 56 59 61 63 65 67 68 69 70 68 68 68 70 70 72 71 70 71 70 69 69 69 70 68 68 70 70 70 69 69 68 67 65 64 63 63 63 61 59 65
44 46 46 55 58 59 61 63 65 67 68 69 67 67 66 69 70 69 69 69 68 68 69 69 69 69 68 70 71 70 69 69 68 67 66 64 64 64 63 64 60 64 63
42 46 43 54 55 57 59 61 63 65 67 68 68 66 65 68 68 67 67 68 69 69 69 69 69 69 69 70 70 70 69 68 67 66 65 61 61 63 61 62 63 64 62
36 44 40 50 51 54 58 59 61 62 64 66 67 68 65 64 64 66 67 65 67 69 69 69 68 69 70 70 69 69 68 67 66 64 61 61 61 62 60 60 63 62 63
34 37 38 43 46 51 53 57 59 59 61 63 64 67 68 66 65 67 66 66 67 68 68 68 69 70 70 69 69 68 67 66 65 63 60 61 59 62 60 61 64 61 61
33 35 37 40 42 46 50 53 57 57 59 61 62 63 66 67 65 67 67 67 67 64 67 68 68 70 69 68 68 67 65 65 64 61 61 62 59 61 61 62 63 63 63
31 35 35 37 39 41 44 49 53 56 56 58 59 61 63 66 67 66 67 67 66 65 66 67 68 68 68 68 67 66 65 65 62 60 61 62 60 59 63 63 62 62 62
28 31 34 35 37 40 40 45 48 54 54 55 57 59 60 62 65 67 66 66 66 65 67 67 67 66 68 67 66 64 63 63 61 60 60 61 60 61 63 62 62 63 61
25 28 31 32 34 34 39 41 43 49 52 53 54 56 58 60 63 65 66 65 65 64 65 66 66 65 65 67 65 64 63 63 61 56 58 60 61 59 63 61 60 61 61
22 23 27 30 31 32 31 37 40 44 48 51 52 54 56 57 59 63 65 65 66 65 66 66 66 64 65 66 65 63 63 62 59 56 57 60 62 59 62 61 60 60 60
17 21 23 27 29 32 27 31 40 41 43 47 49 50 53 55 56 58 62 64 66 66 65 65 64 64 66 66 65 64 62 56 51 59 60 62 62 61 62 60 61 61 60
15 19 19 24 27 28 24 29 32 41 42 44 46 48 49 53 55 56 59 62 65 65 64 64 63 65 66 66 66 64 60 58 58 58 60 63 62 60 61 61 61 60 59
13 18 18 19 25 25 25 27 29 31 36 42 44 47 46 49 53 54 56 58 62 64 62 62 61 59 61 66 65 64 60 60 58 59 61 62 62 60 60 58 58 59 59
11 16 19 18 24 25 24 26 28 29 33 37 42 45 46 46 48 51 53 54 58 63 61 59 60 57 60 64 65 65 64 60 59 61 61 62 61 61 59 58 56 57 59
10 15 20 19 23 24 24 26 27 28 31 36 38 43 45 46 47 47 51 52 55 59 63 63 58 58 63 64 65 64 63 62 61 61 61 61 61 62 60 58 57 59 59
11 12 18 18 22 25 24 26 25 26 31 32 36 40 43 45 46 46 48 51 52 54 56 60 64 62 64 64 63 63 62 63 56 60 61 60 60 61 61 58 57 60 58
9 11 17 17 21 24 23 23 23 23 28 30 34 39 41 43 44 46 47 49 50 51 53 58 63 63 61 62 62 62 62 63 58 61 60 59 59 59 60 59 58 59 58
8 11 16 17 20 23 22 22 21 22 25 27 32 36 40 42 43 44 45 47 49 50 52 56 62 63 60 60 60 60 61 63 60 61 60 59 58 56 58 59 61 61 59
8 10 14 17 18 22 21 20 20 22 22 26 30 34 38 39 42 43 44 46 48 49 50 54 59 63 60 60 59 58 59 61 59 58 60 59 58 56 55 58 58 61 60
12 13 14 16 18 21 19 18 19 20 21 24 28 31 37 38 39 42 44 45 46 47 48 50 53 62 59 58 57 57 58 59 55 59 59 59 59 58 56 55 56 57 60
13 14 15 16 19 19 17 17 18 19 21 22 26 30 34 37 38 40 43 44 45 46 47 49 51 57 60 59 56 58 58 59 57 58 59 59 59 56 56 55 55 57 56
11 13 17 16 19 19 18 19 19 20 21 22 25 29 32 35 37 38 42 44 45 46 47 48 49 54 60 59 54 55 54 56 59 59 60 59 59 57 55 55 55 57 55
9 12 15 17 19 19 22 19 21 20 20 21 23 26 30 33 37 38 41 44 45 46 46 47 48 50 57 61 59 55 53 52 54 58 59 60 58 57 56 54 53 51 53
9 12 15 19 19 19 21 20 22 20 19 21 23 26 30 32 36 38 41 44 45 45 45 46 47 48 52 57 60 59 58 57 53 53 58 59 59 57 57 56 55 52 50
11 11 16 21 19 23 22 22 22 21 21 22 24 27 29 30 38 37 41 43 43 44 44 44 45 46 49 53 58 59 58 58 57 55 51 56 58 58 57 57 55 55 54
11 13 17 21 21 20 21 24 23 23 23 23 25 28 32 33 35 36 40 42 43 42 43 44 45 46 48 51 53 60 58 56 56 54 54 54 56 56 57 57 57 57 56

GFSSE_sfc_30mbdewp_378.txt.gz
Dewpoint
40 44 48 52 56 58 60 62 64 65 68 69 69 67 66 67 70 70 70 71 71 69 69 68 69 69 67 70 70 70 70 69 68 67 67 66 64 65 65 63 62 63 63
40 43 48 50 54 56 58 60 62 64 65 67 68 68 66 66 67 69 69 68 67 67 67 69 70 68 70 70 70 69 69 68 67 66 66 64 64 64 64 66 65 64 65
38 44 46 49 51 54 55 58 60 62 63 65 67 68 68 65 68 68 67 67 66 66 68 69 69 69 70 70 70 69 68 68 67 66 64 62 63 62 63 66 64 63 64
37 38 44 45 47 51 51 54 59 60 61 62 64 66 68 67 65 66 66 66 66 67 68 69 69 70 70 70 69 69 68 67 66 66 61 60 61 61 62 64 63 63 64
34 36 39 45 43 47 47 51 55 58 59 60 62 64 66 67 66 67 67 66 66 68 67 68 68 70 70 69 69 68 67 65 65 63 60 60 60 61 62 63 63 64 63
34 36 36 40 46 43 44 47 49 55 58 58 60 61 63 66 67 67 66 67 67 64 68 69 68 69 68 69 68 67 66 65 64 61 61 60 61 61 63 63 63 64 63
32 35 34 37 38 44 42 45 46 50 55 56 57 58 60 63 66 68 67 67 66 64 66 67 66 68 66 68 68 66 65 65 61 61 62 60 61 62 64 62 63 63 63
29 32 36 34 35 36 41 39 43 46 48 54 55 56 58 60 62 65 67 66 67 67 65 66 67 67 65 67 67 66 65 65 63 62 61 60 61 64 63 62 63 62 62
29 34 36 35 33 34 39 38 42 45 46 51 52 53 55 57 59 62 65 66 67 67 67 66 66 65 64 66 66 65 65 64 63 61 60 60 62 64 62 62 62 61 62
29 31 34 35 35 35 36 35 40 44 45 46 50 50 50 54 57 57 61 63 65 67 66 66 66 65 65 65 65 64 64 63 63 60 59 60 61 63 62 61 61 61 61
19 26 30 32 33 33 28 31 34 43 44 44 46 48 48 49 54 55 58 60 62 66 66 65 67 65 65 65 65 64 64 62 59 60 60 62 61 63 62 61 61 61 60
14 21 24 31 31 30 26 32 33 34 42 45 45 47 48 47 51 52 55 57 59 63 66 65 65 65 64 66 65 64 64 61 61 60 61 63 62 63 62 61 61 61 61
11 19 21 25 30 31 29 30 31 32 37 41 44 46 47 47 47 49 51 54 56 60 64 64 64 64 65 66 65 64 63 62 60 60 62 63 62 62 62 61 61 60 60
11 16 20 21 29 31 30 29 31 31 35 35 44 45 45 46 46 45 48 51 53 57 59 64 61 62 61 65 65 64 65 64 61 61 63 62 62 62 61 61 60 60 60
11 16 21 22 28 28 29 30 30 31 33 35 39 43 45 45 46 45 47 49 51 53 55 58 62 62 61 64 64 64 64 64 62 61 62 62 62 62 60 58 58 59 60
13 12 22 20 26 29 28 30 29 28 31 32 37 42 43 44 46 46 46 48 49 51 53 54 58 62 61 64 64 64 64 64 64 61 61 61 62 62 61 59 58 59 59
12 11 19 19 25 29 27 27 27 26 30 30 34 41 42 43 44 45 45 47 48 49 51 53 57 62 64 64 63 62 63 63 64 61 60 60 62 61 61 60 60 60 59
10 12 16 16 21 27 27 26 25 25 28 30 32 37 42 41 43 43 45 47 47 48 50 52 55 58 63 62 62 61 61 62 63 63 60 59 59 60 60 59 59 61 60
9 15 16 21 21 26 26 26 25 26 26 28 30 35 39 40 41 43 44 45 47 47 49 50 52 54 60 61 61 61 60 61 62 64 60 59 58 57 58 59 59 60 60
10 16 17 19 23 24 26 23 23 23 25 26 29 32 36 40 40 42 43 45 46 46 47 49 50 52 58 61 58 58 58 58 60 62 62 59 58 57 57 58 60 60 59
14 16 17 20 27 25 23 21 21 22 25 25 27 32 34 39 40 40 42 45 46 46 47 48 49 50 54 60 57 58 58 56 55 58 62 60 59 58 58 57 58 59 60
15 16 17 22 24 26 23 24 24 26 26 26 28 30 35 37 39 38 42 44 45 45 46 46 47 48 52 59 56 56 54 55 56 59 60 60 59 58 57 57 55 57 58
13 17 17 23 24 26 26 24 25 26 25 25 25 26 32 34 40 41 41 44 45 45 45 45 46 47 47 57 56 54 53 50 52 57 58 59 59 57 56 56 57 57 56
15 17 23 26 25 25 28 25 27 24 24 25 26 30 35 40 40 40 42 44 44 44 44 44 46 46 48 48 57 56 58 58 52 54 58 59 60 58 56 56 57 58 57
12 18 25 25 28 28 26 26 26 25 26 27 28 31 32 35 37 38 41 43 44 43 43 44 44 45 47 48 49 57 56 57 58 55 54 57 59 59 58 57 55 56 54
15 19 23 26 24 24 23 25 26 27 27 28 31 33 32 34 36 38 41 42 43 43 43 43 44 45 46 48 49 51 56 54 55 56 55 56 56 58 59 58 57 56 56